| time (UTC) | temp C | wind direction | speed KPH | gust KPH | rain 1hr cm | rain 24hr cm | rain mn cm | humidity % | barometer mb |
| 20260506113059 | 7 | 302 | 1.6 | 8.0 | 0.00 | 0.00 | 0.00 | 55 | 1006.2 |
| 20260506111556 | 7 | 319 | 0.0 | 19.3 | 0.00 | 0.00 | 0.00 | 55 | 1006.1 |
| 20260506110054 | 7 | 257 | 0.0 | 0.0 | 0.00 | 0.00 | 0.00 | 56 | 1005.9 |
| 20260506104551 | 7 | 289 | 0.0 | 4.8 | 0.00 | 0.00 | 0.00 | 56 | 1005.6 |
| 20260506103054 | 7 | 292 | 0.0 | 12.9 | 0.00 | 0.00 | 0.00 | 56 | 1005.4 |
| 20260506101547 | 7 | 284 | 0.0 | 6.4 | 0.00 | 0.00 | 0.00 | 56 | 1005.2 |
| 20260506100046 | 8 | 284 | 0.0 | 4.8 | 0.00 | 0.00 | 0.00 | 56 | 1005.3 |
| 20260506094545 | 8 | 236 | 0.0 | 1.6 | 0.00 | 0.00 | 0.00 | 55 | 1005.2 |
| 20260506093042 | 8 | 271 | 0.0 | 9.7 | 0.00 | 0.00 | 0.00 | 54 | 1005.2 |
| 20260506091539 | 8 | 241 | 0.0 | 12.9 | 0.00 | 0.00 | 0.00 | 52 | 1005.1 |
| 20260506090045 | 8 | 249 | 0.0 | 8.0 | 0.00 | 0.00 | 0.00 | 50 | 1004.9 |
| 20260506084536 | 9 | 236 | 0.0 | 16.1 | 0.00 | 0.00 | 0.00 | 49 | 1004.8 |
| 20260506083030 | 9 | 271 | 4.8 | 14.5 | 0.00 | 0.00 | 0.00 | 47 | 1004.7 |
| 20260506081529 | 10 | 285 | 0.0 | 12.9 | 0.00 | 0.00 | 0.00 | 46 | 1004.7 |
| 20260506073022 | 10 | 202 | 3.2 | 14.5 | 0.00 | 0.00 | 0.00 | 43 | 1004.5 |
| 20260506071518 | 10 | 268 | 0.0 | 6.4 | 0.00 | 0.00 | 0.00 | 41 | 1004.5 |
| 20260506061507 | 11 | 205 | 3.2 | 14.5 | 0.00 | 0.00 | 0.00 | 38 | 1004.0 |
| 20260506050111 | 11 | 250 | 0.0 | 12.9 | 0.00 | 0.00 | 0.00 | 42 | 1003.7 |
| 20260506044557 | 11 | 177 | 0.0 | 6.4 | 0.00 | 0.00 | 0.00 | 43 | 1003.6 |
| 20260506043104 | 11 | 259 | 0.0 | 6.4 | 0.00 | 0.00 | 0.00 | 44 | 1003.5 |
| 20260506041554 | 11 | 239 | 1.6 | 17.7 | 0.00 | 0.00 | 0.00 | 45 | 1003.3 |
| 20260506034554 | 12 | 260 | 0.0 | 22.5 | 0.00 | 0.00 | 0.00 | 46 | 1003.0 |
| 20260506033050 | 12 | 268 | 1.6 | 11.3 | 0.00 | 0.00 | 0.00 | 45 | 1002.8 |
| 20260506031551 | 12 | 248 | 4.8 | 19.3 | 0.00 | 0.00 | 0.00 | 45 | 1002.6 |
| 20260506030053 | 12 | 243 | 4.8 | 19.3 | 0.00 | 0.00 | 0.00 | 44 | 1002.6 |
| 20260506024554 | 12 | 240 | 3.2 | 14.5 | 0.00 | 0.00 | 0.00 | 44 | 1002.4 |
| 20260506023044 | 12 | 317 | 0.0 | 16.1 | 0.00 | 0.00 | 0.00 | 44 | 1002.1 |
| 20260506021557 | 12 | 143 | 1.6 | 22.5 | 0.00 | 0.00 | 0.00 | 44 | 1001.9 |
| 20260506020041 | 12 | 245 | 8.0 | 20.9 | 0.00 | 0.00 | 0.00 | 44 | 1001.6 |
| 20260506014542 | 13 | 261 | 4.8 | 20.9 | 0.00 | 0.00 | 0.00 | 44 | 1001.4 |
| 20260506013050 | 13 | 219 | 4.8 | 24.1 | 0.00 | 0.00 | 0.00 | 45 | 1001.2 |
| 20260506011540 | 13 | 217 | 1.6 | 22.5 | 0.00 | 0.00 | 0.00 | 46 | 1001.2 |
| 20260506010040 | 13 | 200 | 3.2 | 25.7 | 0.00 | 0.00 | 0.00 | 45 | 1000.9 |
| 20260506004539 | 13 | 234 | 3.2 | 22.5 | 0.00 | 0.00 | 0.00 | 47 | 1000.8 |
| 20260506003039 | 13 | 236 | 6.4 | 17.7 | 0.00 | 0.00 | 0.00 | 48 | 1000.7 |
| 20260506001542 | 13 | 95 | 4.8 | 27.4 | 0.00 | 0.00 | 0.00 | 48 | 1000.8 |
| 20260506000042 | 13 | 178 | 4.8 | 16.1 | 0.00 | 0.00 | 0.00 | 47 | 1000.7 |
| 20260505234537 | 14 | 228 | 4.8 | 25.7 | 0.00 | 0.00 | 0.00 | 48 | 1000.6 |
| 20260505233038 | 14 | 284 | 1.6 | 22.5 | 0.00 | 0.00 | 0.00 | 48 | 1000.7 |
| 20260505231544 | 14 | 180 | 6.4 | 27.4 | 0.00 | 0.00 | 0.00 | 47 | 1000.6 |
| 20260505230038 | 15 | 217 | 9.7 | 27.4 | 0.00 | 0.00 | 0.00 | 46 | 1000.4 |
| 20260505224537 | 15 | 202 | 8.0 | 32.2 | 0.00 | 0.00 | 0.00 | 47 | 1000.5 |
| 20260505223036 | 15 | 323 | 9.7 | 29.0 | 0.00 | 0.00 | 0.00 | 47 | 1000.3 |
| 20260505221537 | 15 | 208 | 8.0 | 29.0 | 0.00 | 0.00 | 0.00 | 46 | 1000.3 |
| 20260505220037 | 15 | 256 | 4.8 | 30.6 | 0.00 | 0.00 | 0.00 | 46 | 1000.4 |
| 20260505214553 | 15 | 317 | 14.5 | 30.6 | 0.00 | 0.00 | 0.00 | 45 | 1000.5 |
| 20260505213031 | 15 | 296 | 9.7 | 35.4 | 0.00 | 0.00 | 0.00 | 47 | 1000.6 |
| 20260505211534 | 15 | 296 | 11.3 | 33.8 | 0.00 | 0.00 | 0.00 | 49 | 1001.0 |
| 20260505210030 | 14 | 271 | 6.4 | 30.6 | 0.00 | 0.00 | 0.00 | 52 | 1001.0 |
| 20260505204533 | 14 | 186 | 9.7 | 27.4 | 0.00 | 0.00 | 0.00 | 54 | 1001.2 |
| 20260505203030 | 13 | 246 | 6.4 | 33.8 | 0.00 | 0.00 | 0.00 | 57 | 1001.3 |
| 20260505201528 | 14 | 233 | 6.4 | 25.7 | 0.00 | 0.00 | 0.00 | 57 | 1001.4 |
| 20260505200038 | 13 | 192 | 4.8 | 27.4 | 0.00 | 0.00 | 0.00 | 66 | 1001.6 |
| 20260505194527 | 13 | 232 | 8.0 | 37.0 | 0.00 | 0.00 | 0.00 | 64 | 1002.0 |
| 20260505193026 | 14 | 180 | 9.7 | 32.2 | 0.00 | 0.00 | 0.00 | 60 | 1001.5 |
| 20260505191522 | 15 | 221 | 4.8 | 20.9 | 0.00 | 0.00 | 0.00 | 52 | 1001.8 |
| 20260505190029 | 14 | 157 | 11.3 | 32.2 | 0.00 | 0.00 | 0.00 | 51 | 1001.7 |
| 20260505184522 | 16 | 262 | 6.4 | 33.8 | 0.00 | 0.00 | 0.00 | 41 | 1001.4 |
| 20260505183028 | 16 | 306 | 9.7 | 32.2 | 0.00 | 0.00 | 0.00 | 40 | 1001.2 |
| 20260505181519 | 16 | 225 | 16.1 | 40.2 | 0.00 | 0.00 | 0.00 | 40 | 1001.6 |
| 20260505180022 | 17 | 138 | 14.5 | 33.8 | 0.00 | 0.00 | 0.00 | 39 | 1001.2 |
| 20260505174516 | 16 | 138 | 12.9 | 35.4 | 0.00 | 0.00 | 0.00 | 39 | 1001.1 |
| 20260505173014 | 16 | 121 | 8.0 | 38.6 | 0.00 | 0.00 | 0.00 | 40 | 1001.4 |
| 20260505171511 | 16 | 218 | 11.3 | 30.6 | 0.00 | 0.00 | 0.00 | 35 | 1001.6 |
| 20260505170010 | 16 | 207 | 8.0 | 24.1 | 0.00 | 0.00 | 0.00 | 35 | 1001.8 |
| 20260505164507 | 15 | 245 | 6.4 | 30.6 | 0.00 | 0.00 | 0.00 | 37 | 1001.4 |
| 20260505163014 | 15 | 286 | 11.3 | 29.0 | 0.00 | 0.00 | 0.00 | 35 | 1001.7 |
| 20260505161505 | 15 | 278 | 4.8 | 20.9 | 0.00 | 0.00 | 0.00 | 35 | 1001.8 |
| 20260505153108 | 15 | 180 | 4.8 | 32.2 | 0.00 | 0.00 | 0.00 | 36 | 1001.3 |
| 20260505151607 | 13 | 267 | 9.7 | 32.2 | 0.00 | 0.00 | 0.00 | 38 | 1001.2 |
| 20260505140110 | 13 | 299 | 14.5 | 38.6 | 0.00 | 0.00 | 0.00 | 44 | 1001.3 |
| 20260505124541 | 12 | 161 | 9.7 | 33.8 | 0.00 | 0.00 | 0.00 | 44 | 999.8 |
| 20260505123042 | 12 | 262 | 17.7 | 37.0 | 0.00 | 0.00 | 0.00 | 44 | 999.4 |
| 20260505121636 | 12 | 257 | 11.3 | 43.5 | 0.00 | 0.00 | 0.00 | 44 | 999.5 |
| 20260505120043 | 12 | 258 | 8.0 | 22.5 | 0.00 | 0.00 | 0.00 | 44 | 999.1 |
| 20260505114534 | 12 | 223 | 4.8 | 33.8 | 0.00 | 0.00 | 0.00 | 43 | 998.9 |